AGILA

Last updated on Tue Sep 22 2026 00:03:16 GMT+0000 (Coordinated Universal Time)

1 62456U 24252C 26264.54826027 -.00000185 00000+0 00000+0 0 9995 2 62456 0.0216 145.2700 0001291 48.4685 156.2350 1.00272100 6125
UTC large
Height (km)
Speed (km/s)
/
Latitude / Longitude
Inclination (degrees)
Orbital Period (minutes)
Azimuth
Elevation
Range (km)
Doppler Factor

Next 0 passes for location: London (51.5072 / 0.1276)

No passes found over London.
AGILA